Dauntless Aviation
Greetings, Guest! To participate, [sign up for a free account] or [log in]
Airports South America Uruguay

Hospital Policial

Montevideo, URUGUAY

Airport Info
Edit

Location

Latitude / Longitude: 34°52'4"S / 56°9'6"W
  34°52.068'S / 56°9.114'W
  -34.8678 / -56.1519
Satellite photo at:
Airport distance calculator
From:
Weather Reports

METAR

SUAA
7.8nm NW
SUAA 201100Z 15006KT 9999 SCT023 15/08 Q1021
SUMU
8.1nm NE
SUMU 201100Z 17008KT 9999 FEW033 15/09 Q1020 NOSIG

TAF

SUAA
7.8nm NW
TAF SUAA 200400Z 2006/2106 18010KT CAVOK TX19/2019Z TN12/2009Z BECMG 2020/2022 11007KT BECMG 2104/2106 01010KT
SUMU
8.1nm NE
TAF SUMU 200400Z 2006/2106 18010KT CAVOK TX19/2019Z TN12/2009Z BECMG 2020/2022 11007KT BECMG 2104/2106 01010KT
Safelog

 

Dauntless Aviation

© 2007-2014 Dauntless Aviation, all rights reserved
Information provided via PilotNav comes from a variety of official and unofficial data sources. As errors are possible, do not use PilotNav for primary flight planning purposes. Verify any information that you receive via PilotNav with current and canonical charts and other official documents. The material in this database is subject to database copyrights held by Dauntless Aviation and may not be copied without the express permission of Dauntless Aviation - licenses for use of part of all of this data are available for purchase; enquire via the Dauntless Aviation helpdesk. A number of mechanisms and markers exist in the database to protect against and identify infringement / copyright. Automated queries against this website are stictly prohibited, and all activity is logged and analyzed.